Погода в Варзуге

Погода в Варзуге : погода сейчас, прогноз погоды и архив. Всё, что Вы хотите узнать о погоде в Варзуге!

Поиск расширенной информации на нашем сайте:

Другие новости

Новости СМИ2

Главная страница сайта

Новости сайта

02.10.2013

Напоминаем, что на нашем новом сайте вы можете получить высокодетализированные прогнозы погоды по пунктам России, СНГ и мира (включающие важные для авиации метеовеличины, такие как направление и скорость ветра, видимость, явления погоды, количество и форма облачности, нижняя и верхняя граница облачности), а также ознакомиться с разнообразными материалами по авиационной метеорологии и подборкой полезных ссылок на эту тему.

Сайт Метеоцентр.Азия посвящён разработке технологий оптимизации авиаметеорологического обслуживания, включая проектирование и перспективное создание нескольких автоматизированных авиаметеорологических систем:
- система выпуска высокодетальных прогностических карт явлений погоды для нижнего воздушного пространства по России и ближнему зарубежью;
- система верификации прогнозов TAF (выпускаемых синоптиками официальных АМСГ РФ и ближнего зарубежья) и AUTOTAF (выпускаемых сайтом Метеоцентр.Азия) - выявление ошибок, онлайн-сопоставление с фактической погодой METAR, автоматическое внесение коррективов в прогнозы при резком отклонении фактической погоды от прогноза, подсчёт оправдываемости прогнозов по элементам и в целом;
- система обработки, анализа и отображения авиаметеорологической информации для применения провайдерами метеорологической информации.

Рекомендуем: предлагаем помещения: купить офис в БЦ Школа Журналистов у метро Тверская

Погода в Варзуге - сегодня

Время (UTC), дата Ветер
(°,м/с) 
Видим.   Явления Облачность Т
(°С)
Тd
(°С)
f(%) Тe
(°С)
Pmin
(гПа)
dP
(гПа)
Po
(мм)
O2
(г/м3)
Тmin Tmax R s Состояние
почвы
03 20.04.17 110 (В) 1-1  н/о    н/о 
-7.9 -8.3 97 -8  1023.1  -1.1  767  319  -9.9         
06 20.04.17 210 (ЮЗ) 3-3  20000 м    3/0 верхняя 
[Ci fib]
-0.9 -2.5 89 -3  1022.2  -1  766  310  -9.9      28  неравномерный
сухой снег
100% 
09 20.04.17 140 (ЮВ) 1-2  н/о    н/о 
+0.5 -2.3 81 +1  1020.3  -1.8  765  308           
12 20.04.17 180 (Ю) 8-9  н/о    н/о 
+0 -2.4 84 -4  1016.8  -3.5  762  307           
15 20.04.17 170 (Ю) 8-9{10}  н/о    н/о 
+0.2 -2.2 84 -4  1012.7  -4.1  759  306           
18 20.04.17 180 (Ю) 9-11{12}  20000 м    10/0 верхняя 
[Cs]
+0.3 -2.4 82 -4  1008.6  -4  756  305    +0.5       
21 20.04.17 180 (Ю) 7-8{11}  н/о    н/о 
+0.1 -2.2 84 -4  1005.1  -3.5  753  304           
00 21.04.17 180 (Ю) 9-12{12}  н/о    н/о 
-0.9 -0.9 100 -6  1001.5  -3.6  751  304           
03 21.04.17 180 (Ю) 9-12{13}  н/о    н/о 
-1 -1 100 -6  998.2  -3.2  748  303  -1         
06 21.04.17 170 (Ю) 9-11{12}  10 км    10/10 300 м кучево-дожд. 
[Cb calv]
-1.1 -1.1 100 -6  996.2  -2  747  302  -1.2    0.5  29  неравномерный
мокрый или
старый снег
100% 
09 21.04.17 160 (Ю) 8-10{11}  н/о    н/о 
-1 -1 100 -5  995.1  -1.1  746  302           
12 21.04.17 110 (В) 6-8{10}  н/о    н/о 
-0.9 -1 99 -5  994.5  -0.6  745  301           
15 21.04.17 120 (ЮВ) 6-8  н/о    н/о 
-0.9 -1 99 -5  993.9  -0.6  745  301           
18 21.04.17 100 (В) 5-8  20000 м    9/9 300 м кучево-дожд. 
[Cb calv]
-0.7 -0.9 99 -4  993.2  -0.7  744  301    -0.6  0.2     
21 21.04.17 100 (В) 6-8  н/о    н/о 
-0.3 -0.7 97 -4  992.5  -0.7  744  300           
00 22.04.17 100 (В) 5-7  н/о    н/о 
-0.4 -0.7 98 -3  992.2  -0.3  744  300           
03 22.04.17 080 (В) 4-5  н/о    н/о 
-0.4 -0.9 96 -3  992.1  0.1  744  300  -0.9         
06 22.04.17 070 (В) 5-7  20000 м    10/10 300 м кучево-дожд. 
[Cb calv]
+0.1 -1 92 -3  992.8  0.8  744  300  -0.7      28  неравномерный
мокрый или
старый снег
100% 
09 22.04.17 060 (СВ) 5-7  н/о    н/о 
+0.8 -1.3 86 -2  994.1  1.2  745  299           
12 22.04.17 130 (ЮВ) 3-3  н/о    н/о 
-0.5 -0.9 97 -2  995.6  1.5  746  301           
15 22.04.17 180 (Ю) 1-1  н/о    н/о 
-0.5 -1.2 95 996.8  1.3  747  302           
18 22.04.17 070 (В) 4-6  20000 м    6/6 600 м 
[Sc diur, vesp]
-2.3 -6.2 75 -5  998.5  1.7  748  305    +1.4  0.3     
21 22.04.17 070 (В) 4-7  н/о    н/о 
-4.8 -7.9 79 -8  999.7  1.2  749  308           
00 23.04.17 070 (В) 5-7  н/о    н/о 
-5.2 -8.3 79 -9  1000.9  1.1  750  309           
03 23.04.17 050 (СВ) 4-5  н/о    н/о 
-6.3 -8.8 82 -10  1001.7  0.8  751  311  -6.6         
Время (UTC), дата Ветер
(°,м/с) 
Видим.   Явления Облачность Т
(°С)
Тd
(°С)
f(%) Тe
(°С)
Pmin
(гПа)
dP
(гПа)
Po
(мм)
O2
(г/м3)
Тmin Tmax R s Состояние
почвы

Для получения пояснительной информации подведите курсор к названию столбца.

ПОГОДА в Варзуге - архив

Всё, что Вы хотите узнать о погоде в Варзуге - удобно и подробно!

Выберите нужную дату (начиная с 1 января 2015* года) и нажмите кнопку "Найти".
Будут отображены архивные сводки погоды по пункту Варзуга, начиная с указанной даты.


Отображать данные в формате CSV (для использования в таблицах Excel)


Внимание! Наш архив погоды предназначен исключительно для личного некоммерческого использования в познавательных целях. Если Вам необходимы официальные справки о состоянии погоды (для производственных, юридических, коммерческих и т.п. целей), обращайтесь в органы Росгидромета.

*Примечание: данная дата относится к архиву по метеостанциям СССР (Россия, СНГ, Балтия).
Архив по метеостанциям Зарубежной Европы и Азии (кроме Китая) хранится 10 дней, по другим регионам земного шара (Китай, Африка, Америка, Австралия, Океания) - 1 день.

Варзуга - район местоположения метеостанции


Название, широта, долгота, высота метеостанции:
Варзуга 66.4°ш. 36.6°д. 6 м над ур. моря [Российская Федерация]

Дополнительная информация

В oтличие oт бoльшинства пoгoдных сайтoв мы публикуем пoдрoбную метеoинфoрмацию в детальнoм прoфессиoнальнoм фoрмате.

Характеристики температуры и влажнoсти вoздуха измеряются на высoте 2 м в тени вдали oт зданий и деревьев.
Скoрoсть ветра измеряется на высoте 10 м (на урoвне рoста челoвека скoрoсть ветра ниже в 1.5-2 раза). Если метеoстанция нахoдится в гoрoде или в лесу, тo скoрoсть ветра занижена на 2-4 м/с пo сравнению с oткрытым местoм. Скoрoсть ветра над акватoриями крупных рек и oзёр, а также на вершинах хoлмoв на 2-5 м/с выше, чем в oбычных услoвиях.
Атмoсфернoе давление в разных тoчках местнoсти мoжет значительнo oтличаться oт давления на метеoстанции, в зависимoсти oт услoвий рельефа (при пoдъёме на 10 м давление пoнижается примернo на 1 мм рт.ст.).